Location: Betzi
(47.2343°N, 9.5260°E)
Time: 21:52:02
(UTC+00:00)

USA 308 - Pass Details

Date: 27 May 2022
Orbit: 549 x 558 km, 54.0° (Epoch: 14 June)

Event Time Altitude Azimuth Distance (km) Brightness Sun altitude
Exits shadow 02:12:34 - 275° (W) 2,509 5.8 -11.2°
Reaches altitude 10° 02:14:21 10° 282° (WNW) 1,845 5.2 -11.0°
Maximum altitude 02:18:14 35° 350° (N) 914 4.3 -10.5°
Drops below altitude 10° 02:22:07 10° 57° (ENE) 1,853 6.9 -10.1°
Sets 02:24:31 0° 66° (ENE) 2,751 7.8 -9.8°
